Location: Unspecified
(0.0000°N, 0.0000°E)
Time: 07:23:07
(UTC+00:00)

Hubble Space Telescope - Pass Details

Date: 19 September 2017
Orbit: 538 x 541 km, 28.5° (Epoch: 22 September)

Event Time Altitude Azimuth Distance (km) Brightness Sun altitude
Rises 19:40:37 0° 284° (WNW) 2,670 5.5 -26.7°
Reaches altitude 10° 19:43:01 10° 275° (W) 1,782 4.4 -27.3°
Enters shadow 19:46:02 31° 232° (SW) 959 2.4 -28.1°
